Regional Weather Roundup
Issued by NWS

Home | Current Version | Previous Version | Text Only | Print | Product List | Glossary Off
Versions: 1 2 3 4 5 6 7 8 9 10 11 12 13 14 15 16 17 18 19 20 21 22 23 24 25 26 27 28 29 30 31 32 33 34 35 36 37 38 39 40 41 42 43 44 45 46 47 48 49 50

000
ASUS43 KOAX 140002
RWRNE

WEATHER ROUNDUP FOR NEBRASKA
NATIONAL WEATHER SERVICE OMAHA NE
600 PM CST WED DEC 13 2017

NOTES: SATELLITE DATA IS BEING USED TO AUGMENT CLOUD COVER ABOVE
       12000 FEET.
       "FAIR" INDICATES FEW OR NO CLOUDS BELOW 12,000 FEET WITH NO
       SIGNIFICANT WEATHER AND/OR OBSTRUCTIONS TO VISIBILITY.


NEZ001>004-019>022-054>056-140100-
NEBRASKA PANHANDLE

CITY           SKY/WX    TMP DP  RH WIND       PRES   REMARKS
SCOTTSBLUFF    CLOUDY    42  15  33 NW8       30.04R
6HR MIN TEMP:  42; 6HR MAX TEMP:  52;

ALLIANCE       CLEAR     38  18  44 N13       30.03R WCI  30
6HR MIN TEMP:  38; 6HR MAX TEMP:  49;

CHADRON        PTCLDY    41  23  48 N8        30.05R
6HR MIN TEMP:  41; 6HR MAX TEMP:  50;

GORDON         FAIR      38  24  55 N12       30.02R WCI  31
6HR MIN TEMP:  38; 6HR MAX TEMP:  47;

KIMBALL        CLOUDY    40  14  34 N5        30.04R
SIDNEY         CLEAR     39  14  36 N13       30.02S WCI  31
6HR MIN TEMP:  39; 6HR MAX TEMP:  51;

$$

NEZ057>060-069>072-079>082-140100-
SOUTHWEST NEBRASKA

CITY           SKY/WX    TMP DP  RH WIND       PRES   REMARKS
NORTH PLATTE   CLEAR     42  23  46 NW10      29.99R
6HR MIN TEMP:  42; 6HR MAX TEMP:  53;

IMPERIAL       CLEAR     35  15  44 N8        30.00R WCI  29
6HR MIN TEMP:  35; 6HR MAX TEMP:  54;

LEXINGTON      CLEAR     40  23  50 NW9       29.96S WCI  34
MCCOOK         CLEAR     36  17  46 N8        29.98R WCI  30
6HR MIN TEMP:  36; 6HR MAX TEMP:  56;

OGALLALA       CLEAR     38  18  44 N8        30.00S WCI  32
$$

NEZ005>010-023>029-035>040-094-140100-
NORTH CENTRAL NEBRASKA

CITY           SKY/WX    TMP DP  RH WIND       PRES   REMARKS
VALENTINE      CLOUDY    41  21  44 NW9       29.98R
6HR MIN TEMP:  41; 6HR MAX TEMP:  50;

AINSWORTH      CLEAR     40  25  54 NW13      29.97R WCI  33
BROKEN BOW     CLEAR     42  25  50 NW12      29.95R
6HR MIN TEMP:  42; 6HR MAX TEMP:  51;

O`NEILL        CLEAR     38  28  65 N10       29.93R WCI  31
ORD            CLEAR     41  25  53 NW10      29.93R
6HR MIN TEMP:  41; 6HR MAX TEMP:  51;

THEDFORD       CLEAR     42  25  51 NW15G23   29.98R
$$

NEZ041-046>049-061>064-073>077-083>087-140100-
SOUTH CENTRAL NEBRASKA

CITY           SKY/WX    TMP DP  RH WIND       PRES   REMARKS
GRAND ISLAND   CLEAR     42  28  57 NW10      29.93R
6HR MIN TEMP:  42; 6HR MAX TEMP:  53;

AURORA         CLEAR     40  26  56 NW10      29.91R WCI  33
HASTINGS       CLEAR     40  25  55 NW9       29.93R WCI  34
6HR MIN TEMP:  40; 6HR MAX TEMP:  54;

HEBRON         CLEAR     45  26  48 NW6       29.91R
HOLDREGE       CLEAR     41  25  52 NW6       29.96R
KEARNEY        CLEAR     43  26  51 N13       29.95R
YORK           CLEAR     41  27  56 CALM      29.91R
$$

NEZ011>018-030>034-042>045-140100-
NORTHEAST NEBRASKA

CITY           SKY/WX    TMP DP  RH WIND       PRES   REMARKS
NORFOLK        CLEAR     37  27  67 N16       29.90R WCI  28
6HR MIN TEMP:  37; 6HR MAX TEMP:  49;

ALBION         CLOUDY    42  28  58 N8        29.91R
BLAIR          CLOUDY    41  30  63 N15G24    29.88R
COLUMBUS       CLEAR     41  28  60 N13       29.92R
FREMONT        MOCLDY    40  28  62 NW13G18   29.91R WCI  33
TEKAMAH        CLOUDY    41  27  57 N16G26    29.90R
6HR MIN TEMP:  41; 6HR MAX TEMP:  49;

WAYNE          CLOUDY    39  27  61 N16G22    29.91R WCI  30
$$

NEZ050>053-065>068-078-088>093-140100-
SOUTHEAST NEBRASKA

CITY           SKY/WX    TMP DP  RH WIND       PRES   REMARKS
LINCOLN        CLEAR     43  27  53 N9        29.91R
6HR MIN TEMP:  43; 6HR MAX TEMP:  54;

OMAHA EPPLEY   CLOUDY    43  27  53 NW20G30   29.88R
6HR MIN TEMP:  42; 6HR MAX TEMP:  52;

BEATRICE       CLEAR     41  28  58 NW10      29.89R
FALLS CITY     CLEAR     46  28  49 NW12      29.86R
6HR MIN TEMP:  46; 6HR MAX TEMP:  57;

NEBRASKA CITY  CLEAR     42  30  62 N17G24    29.88R
PLATTSMOUTH    PTCLDY    42  29  61 NW15G24   29.88R
$$

NEZ044-045-051>053-067-140100-
OMAHA AREA

CITY           SKY/WX    TMP DP  RH WIND       PRES   REMARKS
OMAHA EPPLEY   CLOUDY    43  27  53 NW20G30   29.88R
6HR MIN TEMP:  42; 6HR MAX TEMP:  52;

BLAIR          CLOUDY    41  30  63 N15G24    29.88R
FREMONT        MOCLDY    40  28  62 NW13G18   29.91R WCI  33
MILLARD        CLEAR     44  29  57 N12G22    29.89R
OFFUTT AFB     PTCLDY    42  28  57 N14G22    29.88R
PLATTSMOUTH    PTCLDY    42  29  61 NW15G24   29.88R
WAHOO          FAIR      39  28  63 N13       29.90R WCI  32
$$




USA.gov is the U.S. government's official web portal to all federal, state and local government web resources and services.